Regional Weather Roundup
Issued by NWS Sioux Falls, SD

Home | Current Version | Previous Version | Graphics & Text | Print | Product List | Glossary Off
Versions: 1 2 3 4 5 6 7 8 9 10 11 12 13 14 15 16 17 18 19 20 21 22 23 24 25 26 27 28 29 30 31 32 33 34 35 36 37 38 39 40 41 42 43 44 45 46 47 48 49 50

000
ASUS43 KFSD 170510
RWRFSD

WEATHER ROUNDUP FOR SE SOUTH DAKOTA/SW MINNESOTA/NW IOWA
NATIONAL WEATHER SERVICE SIOUX FALLS SD
1200 AM CDT THU APR 17 2014

NOTE: "FAIR" INDICATES FEW OR NO CLOUDS BELOW 12,000 FEET WITH NO
SIGNIFICANT WEATHER AND OR OBSTRUCTIONS TO VISIBILITY.


SDZ038>040-050-052>070-170600-
SOUTHEAST SOUTH DAKOTA

CITY           SKY/WX    TMP DP  RH WIND       PRES   REMARKS
CHAMBERLAIN      N/A     27  22  81 N6        30.22R WCI  20
HURON          CLEAR     25  21  85 N6        30.21R WCI  18
MITCHELL       CLOUDY    32  23  69 N14       30.20R WCI  22
SIOUX FALLS    CLOUDY    28  24  85 N16       30.13R WCI  16
WINNER         FAIR      27  21  78 N6        30.22R WCI  20
YANKTON        CLOUDY    30  25  80 N18G24    30.17R WCI  18
$$

MNZ071-072-080-081-089-090-097-098-170600-
SOUTHWEST MINNESOTA

CITY           SKY/WX    TMP DP  RH WIND       PRES   REMARKS
FAIRMONT       CLOUDY    30  27  86 NW22G30   29.98R WCI  17
JACKSON        CLOUDY    30  27  86 NW22G32   30.01R WCI  17
LUVERNE        CLOUDY    32  27  80 N14G26    30.10R WCI  22
MARSHALL       CLOUDY    28  21  74 N18       30.10R WCI  16
MONTEVIDEO     CLOUDY    28  25  86 NE17G24   30.13R WCI  16
PIPESTONE      CLOUDY    28  25  86 N14       30.08R WCI  17
REDWOOD FALLS  CLOUDY    29  25  85 N14G21    30.06R WCI  18
TRACY          CLOUDY    29  26  88 N18G26    30.08R WCI  16
WINDOM         CLOUDY    28  27  93 NW25G31   30.03R WCI  14
WORTHINGTON    CLOUDY    28  21  74 N23G31    30.06R WCI  14
$$

IAZ001>003-012>014-020>022-031-032-NEZ013-014-SDZ071-170600-
NORTHWEST IOWA

CITY           SKY/WX    TMP DP  RH WIND       PRES   REMARKS
CHEROKEE       CLOUDY    31  29  91 N16       30.06R WCI  20
DENISON        CLOUDY    32  28  86 NW21G29   30.05R WCI  20
ESTHERVILLE    CLOUDY    29  28  96 NW28G36   29.99R WCI  14
LE MARS        CLOUDY    32  28  86 N13G22    30.11R WCI  22
ORANGE CITY    CLOUDY    30  25  80 N17G24    30.08R WCI  18
SHELDON        CLOUDY    30  27  86 N22G33    30.06R WCI  17
SIOUX CITY     CLOUDY    34  28  79 N21       30.10R WCI  22
SPENCER        CLOUDY    30  27  88 N28G33    30.02R WCI  15
STORM LAKE     CLOUDY    30  30 100 N22G31    30.02R WCI  17
$$

ABBREVIATIONS USED IN REMARKS
   TC - TEMPERATURE IN CELSIUS
  WCI - WIND CHILL INDEX
   HX - HEAT INDEX
  VSB - VISIBILITY




USA.gov is the U.S. government's official web portal to all federal, state and local government web resources and services.